Tracking 18957 objects as of 22-Jan-2018
HD Live streaming from Space Station
objects crossing your sky now

FENGYUN 1C DEB

Track FENGYUN 1C DEB now!
10-day predictions


NORAD ID: 32226
Int'l Code: 1999-025CVY
Perigee: 596.0 km
Apogee: 635.4 km
Inclination: 99.5 °
Period: 96.9 minutes
Semi major axis: 6986 km
RCS: 0.006 m2 (small)
Launch date: May 10, 1999
Source: People's Republic of China (PRC)
Launch site: Taiyaun Space Center, China (TSC)

Note: This is SATELLITE DEBRIS
aabbcc
Your satellite tracking list
Your tracking list is empty




NASA's NSSDC Master Catalog

Two Line Element Set (TLE):
1 32226U 99025CVY 18021.83712176  .00007290  00000-0  82370-3 0  9998
2 32226  99.4718 168.8787 0028168  16.2071 344.0034 14.86611865559858
Source of the keplerian elements: AFSPC